Change the Weather History Date:

Monday, October 20, 2014

  Actual Average Record
Temperature  
Mean Temperature 68 °F -  
Max Temperature 75 °F 77 °F 100 °F (2007)
Min Temperature 61 °F 47 °F 27 °F (1976)
Cooling Degree Days 3    
Growing Degree Days 18 (Base 50)    
Moisture  
Dew Point 60 °F    
Average Humidity 78    
Maximum Humidity 97    
Minimum Humidity 53    
Precipitation  
Precipitation 0.17 in - - ()
Sea Level Pressure  
Sea Level Pressure 29.98 in    
Wind  
Wind Speed 7 mph (ESE)    
Max Wind Speed 13 mph    
Max Gust Speed 21 mph    
Visibility 10 miles    
Events Rain , Thunderstorm    
Averages and records for this station are not official NWS values.
T = Trace of Precipitation, MM = Missing Value Source: NWS Daily Summary

Daily Weather History Graph

Daily Weather History Graph

Search for Another Location

Airport or City:

Trip Planner

Search our weather history database for the weather conditions in past years. The results will help you decide how hot, cold, wet, or windy it might be!

Date:

Astronomy

Oct. 20, 2014 Rise Set
Actual Time 7:59 AM CDT 7:14 PM CDT
Civil Twilight 7:35 AM CDT 7:39 PM CDT
Nautical Twilight 7:06 AM CDT 8:08 PM CDT
Astronomical Twilight 6:38 AM CDT 8:36 PM CDT
Moon 5:01 AM CDT (10/20) 5:29 PM CDT (10/20)
Length of Visible Light 12h 04m
Length of Day
11h 15m
Waning Crescent, 10% of the Moon is Illuminated
Oct 20
Waning Crescent
Oct 23
New
Oct 30
First Quarter
Nov 6
Full
Nov 14
Last Quarter

Hourly Weather History & Observations

Time (CDT) Temp. Dew Point Humidity Pressure Visibility Wind Dir Wind Speed Gust Speed Precip Events Conditions
12:53 AM 62.1 °F 57.9 °F 86% 29.94 in 10.0 mi East 5.8 mph - N/A   Clear
1:53 AM 63.0 °F 57.0 °F 81% 29.94 in 10.0 mi ENE 5.8 mph - N/A   Clear
2:53 AM 62.1 °F 57.0 °F 84% 29.93 in 10.0 mi East 5.8 mph - N/A   Clear
3:53 AM 62.1 °F 57.0 °F 84% 29.93 in 10.0 mi East 4.6 mph - N/A   Clear
4:53 AM 61.0 °F 57.0 °F 87% 29.93 in 10.0 mi NE 4.6 mph - N/A   Clear
5:53 AM 62.1 °F 57.9 °F 86% 29.93 in 10.0 mi East 6.9 mph - N/A   Clear
6:53 AM 63.0 °F 59.0 °F 87% 29.94 in 10.0 mi East 6.9 mph - N/A   Clear
7:53 AM 61.0 °F 57.9 °F 90% 29.96 in 10.0 mi ENE 4.6 mph - N/A   Clear
8:53 AM 63.0 °F 57.0 °F 81% 29.97 in 10.0 mi East 8.1 mph - N/A   Clear
9:53 AM 66.2 °F 59.0 °F 78% 30.09 in 10.0 mi ESE 11.5 mph - N/A   Scattered Clouds
10:07 AM 66.0 °F 59.0 °F 78% 30.09 in 10.0 mi ESE 11.5 mph - N/A   Mostly Cloudy
10:53 AM 68.0 °F 60.1 °F 76% 29.99 in 10.0 mi ESE 11.5 mph - N/A   Mostly Cloudy
11:18 AM 69.1 °F 60.1 °F 73% 30.09 in 10.0 mi SE 10.4 mph - N/A   Scattered Clouds
11:28 AM 69.1 °F 61.0 °F 75% 30.09 in 10.0 mi ESE 11.5 mph - N/A   Mostly Cloudy
11:53 AM 69.8 °F 60.8 °F 73% 30.09 in 10.0 mi ESE 11.5 mph - N/A   Overcast
12:38 PM 73.0 °F 60.1 °F 64% 30.08 in 10.0 mi SE 12.7 mph - N/A   Mostly Cloudy
12:53 PM 73.9 °F 60.1 °F 62% 29.97 in 10.0 mi SE 11.5 mph 19.6 mph N/A   Scattered Clouds
1:53 PM 75.0 °F 59.0 °F 57% 29.95 in 10.0 mi ESE 12.7 mph - N/A   Mostly Cloudy
2:22 PM 75.9 °F 59.0 °F 56% 30.04 in 10.0 mi SE 12.7 mph 20.7 mph N/A Thunderstorm Mostly Cloudy
2:37 PM 75.0 °F 59.0 °F 57% 30.03 in 10.0 mi ESE 9.2 mph - N/A   Mostly Cloudy
2:48 PM 75.2 °F 57.2 °F 53% 30.02 in 10.0 mi East 10.4 mph - N/A Thunderstorm Mostly Cloudy
2:53 PM 75.0 °F 57.9 °F 55% 29.92 in 10.0 mi ESE 10.4 mph - N/A Thunderstorm Mostly Cloudy
3:39 PM 73.0 °F 60.1 °F 64% 30.03 in 10.0 mi SE 12.7 mph - 0.00 in Rain Light Rain
3:53 PM 71.1 °F 62.1 °F 73% 29.92 in 10.0 mi SE 11.5 mph - 0.01 in Rain Rain
4:53 PM 69.1 °F 63.0 °F 81% 29.93 in 10.0 mi SE 8.1 mph - 0.04 in Rain Light Rain
5:53 PM 66.9 °F 64.0 °F 90% 29.94 in 10.0 mi SSW 4.6 mph - 0.08 in Rain Light Rain
6:53 PM 66.9 °F 64.0 °F 90% 29.93 in 10.0 mi Calm Calm - 0.04 in   Overcast
7:53 PM 66.9 °F 64.0 °F 90% 29.95 in 10.0 mi SSW 4.6 mph - N/A   Mostly Cloudy
8:53 PM 66.9 °F 64.9 °F 93% 29.96 in 10.0 mi Calm Calm - N/A   Mostly Cloudy
9:53 PM 66.0 °F 64.0 °F 93% 29.97 in 10.0 mi Calm Calm - N/A   Clear
10:53 PM 64.0 °F 63.0 °F 96% 29.98 in 10.0 mi Calm Calm - N/A   Clear
11:53 PM 63.0 °F 62.1 °F 97% 29.97 in 10.0 mi NNE 4.6 mph - N/A   Clear